Time,TemperatureF,DewpointF,PressureIn,WindDirection,WindDirectionDegrees,WindSpeedMPH,WindSpeedGustMPH,Humidity,HourlyPrecipIn,Conditions,Clouds,dailyrainin,SolarRadiationWatts/m^2,SoftwareType,DateUTC
2014-01-29 00:00:00,5.0,-7.7,30.23,South,181,0.0,0.0,55,0.00,CLR,,0.00,0.0,WeatherDisplay:10.37,2014-01-29 05:00:00,
2014-01-29 00:01:00,5.0,-7.7,30.23,South,181,0.0,0.0,55,0.00,CLR,,0.00,0.0,WeatherDisplay:10.37,2014-01-29 05:01:00,
2014-01-29 00:02:00,5.0,-7.7,30.23,South,181,0.0,0.0,55,0.00,CLR,,0.00,0.0,WeatherDisplay:10.37,2014-01-29 05:02:00,
2014-01-29 00:03:00,5.0,-7.7,30.23,South,181,0.0,0.0,55,0.00,CLR,,0.00,0.0,WeatherDisplay:10.37,2014-01-29 05:03:00,
2014-01-29 00:04:00,5.0,-7.7,30.23,South,181,0.0,0.0,55,0.00,CLR,,0.00,0.0,WeatherDisplay:10.37,2014-01-29 05:04:00,
2014-01-29 00:06:00,5.0,-7.7,30.23,SE,134,0.1,2.3,55,0.00,CLR,,0.00,0.0,WeatherDisplay:10.37,2014-01-29 05:06:00,
2014-01-29 00:11:00,5.0,-7.7,30.23,SE,134,0.0,0.0,55,0.00,CLR,,0.00,0.0,WeatherDisplay:10.37,2014-01-29 05:11:00,
2014-01-29 00:16:00,5.0,-7.3,30.23,SE,137,0.0,1.0,56,0.00,CLR,,0.00,0.0,WeatherDisplay:10.37,2014-01-29 05:16:00,
2014-01-29 00:21:00,4.9,-7.4,30.23,South,175,0.0,0.0,56,0.00,CLR,,0.00,0.0,WeatherDisplay:10.37,2014-01-29 05:21:00,
2014-01-29 00:26:00,4.8,-7.5,30.23,South,174,0.2,1.2,56,0.00,CLR,,0.00,0.0,WeatherDisplay:10.37,2014-01-29 05:26:00,
2014-01-29 00:31:00,4.9,-7.4,30.23,South,174,0.0,0.0,56,0.00,CLR,,0.00,0.0,WeatherDisplay:10.37,2014-01-29 05:31:00,
2014-01-29 00:36:00,4.8,-7.5,30.22,SSE,164,0.0,0.0,56,0.00,CLR,,0.00,0.0,WeatherDisplay:10.37,2014-01-29 05:36:00,
2014-01-29 00:41:00,4.7,-7.6,30.22,SSE,164,0.0,0.0,56,0.00,CLR,,0.00,0.0,WeatherDisplay:10.37,2014-01-29 05:41:00,
2014-01-29 00:46:00,4.6,-7.7,30.22,SSE,163,0.1,2.3,56,0.00,CLR,,0.00,0.0,WeatherDisplay:10.37,2014-01-29 05:46:00,
2014-01-29 00:51:00,4.6,-7.7,30.22,SSE,159,0.0,1.2,56,0.00,CLR,,0.00,0.0,WeatherDisplay:10.37,2014-01-29 05:51:00,
2014-01-29 00:56:00,4.6,-7.3,30.22,SSE,159,0.4,1.2,57,0.00,CLR,,0.00,0.0,WeatherDisplay:10.37,2014-01-29 05:56:00,
2014-01-29 01:01:00,4.6,-7.7,30.22,South,171,0.4,2.3,56,0.00,CLR,,0.00,0.0,WeatherDisplay:10.37,2014-01-29 06:01:00,
2014-01-29 01:06:00,4.6,-7.7,30.22,South,169,0.1,2.3,56,0.00,CLR,,0.00,0.0,WeatherDisplay:10.37,2014-01-29 06:06:00,
2014-01-29 01:11:00,4.5,-7.4,30.21,South,169,0.0,1.2,57,0.00,CLR,,0.00,0.0,WeatherDisplay:10.37,2014-01-29 06:11:00,
2014-01-29 01:16:00,4.3,-7.6,30.22,South,169,0.0,0.0,57,0.00,CLR,,0.00,0.0,WeatherDisplay:10.37,2014-01-29 06:16:00,
2014-01-29 01:21:00,3.9,-8.0,30.21,South,169,0.0,0.0,57,0.00,CLR,,0.00,0.0,WeatherDisplay:10.37,2014-01-29 06:21:00,
2014-01-29 01:26:00,3.7,-7.8,30.21,SSW,192,0.6,2.0,58,0.00,CLR,,0.00,0.0,WeatherDisplay:10.37,2014-01-29 06:26:00,
2014-01-29 01:31:00,3.9,-7.6,30.21,SSW,192,0.1,2.3,58,0.00,CLR,,0.00,0.0,WeatherDisplay:10.37,2014-01-29 06:31:00,
2014-01-29 01:36:00,3.9,-7.6,30.21,SSW,192,0.6,2.3,58,0.00,CLR,,0.00,0.0,WeatherDisplay:10.37,2014-01-29 06:36:00,
2014-01-29 01:41:00,3.8,-7.7,30.21,SSW,192,0.0,1.2,58,0.00,CLR,,0.00,0.0,WeatherDisplay:10.37,2014-01-29 06:41:00,
2014-01-29 01:46:00,3.5,-7.6,30.21,SSW,197,0.4,2.3,59,0.00,CLR,,0.00,0.0,WeatherDisplay:10.37,2014-01-29 06:46:00,
2014-01-29 01:51:00,3.4,-8.1,30.21,SSW,197,0.4,2.0,58,0.00,CLR,,0.00,0.0,WeatherDisplay:10.37,2014-01-29 06:51:00,
2014-01-29 01:56:00,3.3,-7.8,30.20,SSW,196,0.0,2.3,59,0.00,CLR,,0.00,0.0,WeatherDisplay:10.37,2014-01-29 06:56:00,
2014-01-29 02:01:00,2.9,-8.2,30.20,SSW,196,0.0,1.0,59,0.00,CLR,,0.00,0.0,WeatherDisplay:10.37,2014-01-29 07:01:00,
2014-01-29 02:06:00,2.6,-8.5,30.20,SSW,204,0.7,3.5,59,0.00,CLR,,0.00,0.0,WeatherDisplay:10.37,2014-01-29 07:06:00,
2014-01-29 02:11:00,2.4,-8.3,30.20,WSW,244,0.0,2.3,60,0.00,CLR,,0.00,0.0,WeatherDisplay:10.37,2014-01-29 07:11:00,
2014-01-29 02:16:00,2.2,-8.5,30.20,WSW,244,0.0,0.0,60,0.00,CLR,,0.00,0.0,WeatherDisplay:10.37,2014-01-29 07:16:00,
2014-01-29 02:21:00,1.9,-8.5,30.20,WSW,244,0.0,1.2,61,0.00,CLR,,0.00,0.0,WeatherDisplay:10.37,2014-01-29 07:21:00,
2014-01-29 02:26:00,1.7,-8.7,30.19,WSW,244,0.0,1.2,61,0.00,CLR,,0.00,0.0,WeatherDisplay:10.37,2014-01-29 07:26:00,
2014-01-29 02:31:00,1.5,-8.5,30.19,SSW,203,0.0,1.2,62,0.00,CLR,,0.00,0.0,WeatherDisplay:10.37,2014-01-29 07:31:00,
2014-01-29 02:36:00,1.4,-8.6,30.19,SSW,203,0.0,1.2,62,0.00,CLR,,0.00,0.0,WeatherDisplay:10.37,2014-01-29 07:36:00,
2014-01-29 02:41:00,1.3,-8.4,30.19,SSW,203,0.0,0.0,63,0.00,CLR,,0.00,0.0,WeatherDisplay:10.37,2014-01-29 07:41:00,
2014-01-29 02:46:00,1.3,-8.4,30.19,SSW,203,0.0,1.2,63,0.00,CLR,,0.00,0.0,WeatherDisplay:10.37,2014-01-29 07:46:00,
2014-01-29 02:51:00,1.1,-8.6,30.19,SSW,207,0.2,2.3,63,0.00,CLR,,0.00,0.0,WeatherDisplay:10.37,2014-01-29 07:51:00,
2014-01-29 02:56:00,1.1,-8.3,30.19,SSW,202,0.6,2.3,64,0.00,CLR,,0.00,0.0,WeatherDisplay:10.37,2014-01-29 07:56:00,
2014-01-29 03:01:00,1.2,-8.2,30.19,SSW,202,0.0,0.0,64,0.00,CLR,,0.00,0.0,WeatherDisplay:10.37,2014-01-29 08:01:00,
2014-01-29 03:06:00,1.2,-8.2,30.19,SSW,202,0.0,1.2,64,0.00,CLR,,0.00,0.0,WeatherDisplay:10.37,2014-01-29 08:06:00,
2014-01-29 03:11:00,1.1,-8.3,30.19,SSW,202,0.0,1.0,64,0.00,CLR,,0.00,0.0,WeatherDisplay:10.37,2014-01-29 08:11:00,
2014-01-29 03:16:00,1.3,-8.1,30.19,SW,224,0.0,0.0,64,0.00,CLR,,0.00,0.0,WeatherDisplay:10.37,2014-01-29 08:16:00,
2014-01-29 03:21:00,1.3,-8.1,30.19,SW,224,0.0,0.0,64,0.00,CLR,,0.00,0.0,WeatherDisplay:10.37,2014-01-29 08:21:00,
2014-01-29 03:26:00,1.1,-8.3,30.18,SSW,201,0.2,1.2,64,0.00,CLR,,0.00,0.0,WeatherDisplay:10.37,2014-01-29 08:26:00,
2014-01-29 03:31:00,1.1,-8.3,30.18,SSW,206,0.0,0.0,64,0.00,CLR,,0.00,0.0,WeatherDisplay:10.37,2014-01-29 08:31:00,
2014-01-29 03:32:00,1.2,-8.2,30.18,SSW,206,0.0,0.0,64,0.00,CLR,,0.00,0.0,WeatherDisplay:10.37,2014-01-29 08:32:00,
2014-01-29 03:37:00,1.2,-8.2,30.18,SSW,205,0.2,2.0,64,0.00,CLR,,0.00,0.0,WeatherDisplay:10.37,2014-01-29 08:37:00,
2014-01-29 03:42:00,1.3,-8.1,30.18,SSW,204,0.3,3.5,64,0.00,CLR,,0.00,0.0,WeatherDisplay:10.37,2014-01-29 08:42:00,
2014-01-29 03:47:00,1.4,-8.0,30.17,SSW,204,0.1,1.2,64,0.00,CLR,,0.00,0.0,WeatherDisplay:10.37,2014-01-29 08:47:00,
2014-01-29 03:52:00,1.3,-8.1,30.17,SSW,204,0.0,1.2,64,0.00,CLR,,0.00,0.0,WeatherDisplay:10.37,2014-01-29 08:52:00,
2014-01-29 03:57:00,1.3,-8.1,30.17,SSW,204,0.1,1.2,64,0.00,CLR,,0.00,0.0,WeatherDisplay:10.37,2014-01-29 08:57:00,
2014-01-29 04:02:00,1.2,-8.2,30.17,SSW,204,0.0,0.0,64,0.00,CLR,,0.00,0.0,WeatherDisplay:10.37,2014-01-29 09:02:00,
2014-01-29 04:07:00,1.0,-8.3,30.17,SSW,204,0.1,1.2,64,0.00,CLR,,0.00,0.0,WeatherDisplay:10.37,2014-01-29 09:07:00,
2014-01-29 04:12:00,0.9,-8.4,30.16,SSW,204,0.1,1.2,64,0.00,CLR,,0.00,0.0,WeatherDisplay:10.37,2014-01-29 09:12:00,
2014-01-29 04:17:00,0.9,-8.4,30.16,SSW,204,0.4,1.0,64,0.00,CLR,,0.00,0.0,WeatherDisplay:10.37,2014-01-29 09:17:00,
2014-01-29 04:22:00,1.0,-8.3,30.16,SSW,204,0.1,2.0,64,0.00,CLR,,0.00,0.0,WeatherDisplay:10.37,2014-01-29 09:22:00,
2014-01-29 04:27:00,1.2,-8.5,30.16,SSW,204,0.0,0.0,63,0.00,CLR,,0.00,0.0,WeatherDisplay:10.37,2014-01-29 09:27:00,
2014-01-29 04:32:00,1.3,-8.4,30.16,SSW,204,0.0,0.0,63,0.00,CLR,,0.00,0.0,WeatherDisplay:10.37,2014-01-29 09:32:00,
2014-01-29 04:37:00,1.3,-8.4,30.16,SSW,204,0.0,1.2,63,0.00,CLR,,0.00,0.0,WeatherDisplay:10.37,2014-01-29 09:37:00,
2014-01-29 04:42:00,1.3,-8.7,30.16,SSW,204,0.0,0.0,62,0.00,CLR,,0.00,0.0,WeatherDisplay:10.37,2014-01-29 09:42:00,
2014-01-29 04:47:00,1.4,-8.6,30.15,SSW,204,0.1,0.0,62,0.00,CLR,,0.00,0.0,WeatherDisplay:10.37,2014-01-29 09:47:00,
2014-01-29 04:52:00,1.3,-9.0,30.16,SSW,204,0.2,1.0,61,0.00,CLR,,0.00,0.0,WeatherDisplay:10.37,2014-01-29 09:52:00,
2014-01-29 04:57:00,1.3,-9.0,30.15,SSW,204,0.0,1.2,61,0.00,CLR,,0.00,0.0,WeatherDisplay:10.37,2014-01-29 09:57:00,
2014-01-29 05:02:00,1.3,-9.0,30.15,SW,217,0.0,3.5,61,0.00,CLR,,0.00,0.0,WeatherDisplay:10.37,2014-01-29 10:02:00,
2014-01-29 05:07:00,1.2,-9.1,30.15,SW,217,0.0,1.2,61,0.00,CLR,,0.00,0.0,WeatherDisplay:10.37,2014-01-29 10:07:00,
2014-01-29 05:12:00,1.0,-9.3,30.15,SSW,209,0.0,0.0,61,0.00,CLR,,0.00,0.0,WeatherDisplay:10.37,2014-01-29 10:12:00,
2014-01-29 05:17:00,0.8,-9.5,30.15,SW,229,0.1,1.2,61,0.00,CLR,,0.00,0.0,WeatherDisplay:10.37,2014-01-29 10:17:00,
2014-01-29 05:22:00,1.0,-9.3,30.15,SW,229,0.2,1.2,61,0.00,CLR,,0.00,0.0,WeatherDisplay:10.37,2014-01-29 10:22:00,
2014-01-29 05:27:00,1.1,-9.2,30.15,SSW,208,0.0,0.0,61,0.00,CLR,,0.00,0.0,WeatherDisplay:10.37,2014-01-29 10:27:00,
2014-01-29 05:32:00,1.1,-9.2,30.15,South,189,0.3,2.3,61,0.00,CLR,,0.00,0.0,WeatherDisplay:10.37,2014-01-29 10:32:00,
2014-01-29 05:37:00,1.2,-9.5,30.15,SW,223,1.0,2.0,60,0.00,CLR,,0.00,0.0,WeatherDisplay:10.37,2014-01-29 10:37:00,
2014-01-29 05:42:00,1.3,-9.4,30.15,SW,224,0.0,1.2,60,0.00,CLR,,0.00,0.0,WeatherDisplay:10.37,2014-01-29 10:42:00,
2014-01-29 05:47:00,1.3,-9.4,30.15,SW,224,0.3,2.0,60,0.00,CLR,,0.00,0.0,WeatherDisplay:10.37,2014-01-29 10:47:00,
2014-01-29 05:52:00,1.3,-9.4,30.15,WSW,239,0.0,1.0,60,0.00,CLR,,0.00,0.0,WeatherDisplay:10.37,2014-01-29 10:52:00,
2014-01-29 05:57:00,1.1,-9.6,30.15,SW,235,0.0,1.2,60,0.00,CLR,,0.00,0.0,WeatherDisplay:10.37,2014-01-29 10:57:00,
2014-01-29 06:02:00,1.0,-9.7,30.15,SSW,205,0.1,1.2,60,0.00,CLR,,0.00,0.0,WeatherDisplay:10.37,2014-01-29 11:02:00,
2014-01-29 06:07:00,0.9,-9.8,30.15,SSW,193,0.0,1.2,60,0.00,CLR,,0.00,0.0,WeatherDisplay:10.37,2014-01-29 11:07:00,
2014-01-29 06:12:00,0.8,-9.9,30.14,SSW,193,0.0,1.2,60,0.00,CLR,,0.00,0.0,WeatherDisplay:10.37,2014-01-29 11:12:00,
2014-01-29 06:17:00,0.7,-10.0,30.14,SSW,206,0.1,1.2,60,0.00,CLR,,0.00,0.0,WeatherDisplay:10.37,2014-01-29 11:17:00,
2014-01-29 06:22:00,0.6,-10.0,30.15,SSW,207,0.0,2.3,60,0.00,CLR,,0.00,0.0,WeatherDisplay:10.37,2014-01-29 11:22:00,
2014-01-29 06:27:00,0.6,-10.0,30.15,SSW,202,0.0,0.0,60,0.00,CLR,,0.00,0.0,WeatherDisplay:10.37,2014-01-29 11:27:00,
2014-01-29 06:32:00,0.6,-10.0,30.14,SSW,202,0.0,1.2,60,0.00,CLR,,0.00,0.0,WeatherDisplay:10.37,2014-01-29 11:32:00,
2014-01-29 06:37:00,0.4,-10.2,30.15,South,190,1.1,3.5,60,0.00,CLR,,0.00,0.0,WeatherDisplay:10.37,2014-01-29 11:37:00,
2014-01-29 06:42:00,0.4,-10.2,30.14,South,190,0.2,1.0,60,0.00,CLR,,0.00,0.0,WeatherDisplay:10.37,2014-01-29 11:42:00,
2014-01-29 06:47:00,0.2,-10.4,30.14,SSW,196,0.0,1.2,60,0.00,CLR,,0.00,0.0,WeatherDisplay:10.37,2014-01-29 11:47:00,
2014-01-29 06:52:00,0.0,-10.6,30.15,SSW,196,0.0,0.0,60,0.00,CLR,,0.00,0.0,WeatherDisplay:10.37,2014-01-29 11:52:00,
2014-01-29 06:57:00,0.0,-10.6,30.15,SSW,196,0.1,1.2,60,0.00,CLR,,0.00,0.0,WeatherDisplay:10.37,2014-01-29 11:57:00,
2014-01-29 07:02:00,-0.2,-10.8,30.15,SSW,196,0.0,1.0,60,0.00,OVC,,0.00,0.0,WeatherDisplay:10.37,2014-01-29 12:02:00,
2014-01-29 07:07:00,-0.3,-10.6,30.15,South,172,0.5,2.3,61,0.00,OVC,,0.00,0.0,WeatherDisplay:10.37,2014-01-29 12:07:00,
2014-01-29 07:12:00,-0.1,-10.7,30.14,South,185,0.2,3.5,60,0.00,OVC,,0.00,0.0,WeatherDisplay:10.37,2014-01-29 12:12:00,
2014-01-29 07:17:00,0.0,-10.6,30.15,South,182,0.0,1.2,60,0.00,OVC,,0.00,0.0,WeatherDisplay:10.37,2014-01-29 12:17:00,
2014-01-29 07:22:00,0.0,-10.6,30.14,South,169,0.2,1.2,60,0.00,OVC,,0.00,0.0,WeatherDisplay:10.37,2014-01-29 12:22:00,
2014-01-29 07:27:00,0.1,-10.5,30.14,South,169,0.0,0.0,60,0.00,OVC,,0.00,5.0,WeatherDisplay:10.37,2014-01-29 12:27:00,
2014-01-29 07:32:00,0.0,-10.6,30.14,South,169,0.1,1.0,60,0.00,CLR,,0.00,9.0,WeatherDisplay:10.37,2014-01-29 12:32:00,
2014-01-29 07:37:00,-0.1,-10.7,30.14,SSE,167,0.0,1.2,60,0.00,SCT,,0.00,12.0,WeatherDisplay:10.37,2014-01-29 12:37:00,
2014-01-29 07:42:00,-0.1,-10.7,30.15,SSE,167,0.0,1.2,60,0.00,SCT,,0.00,14.0,WeatherDisplay:10.37,2014-01-29 12:42:00,
2014-01-29 07:47:00,0.1,-10.5,30.14,SSE,165,0.9,2.3,60,0.00,BKN,,0.00,16.0,WeatherDisplay:10.37,2014-01-29 12:47:00,
2014-01-29 07:52:00,0.4,-10.6,30.14,South,182,0.6,2.3,59,0.00,BKN,,0.00,19.0,WeatherDisplay:10.37,2014-01-29 12:52:00,
2014-01-29 07:57:00,0.7,-10.6,30.14,South,169,0.6,1.2,58,0.00,BKN,,0.00,21.0,WeatherDisplay:10.37,2014-01-29 12:57:00,
2014-01-29 08:02:00,1.1,-10.6,30.14,South,179,1.0,4.0,57,0.00,BKN,,0.00,25.0,WeatherDisplay:10.37,2014-01-29 13:02:00,
2014-01-29 08:07:00,1.6,-10.1,30.14,SSW,198,1.1,3.5,57,0.00,BKN,,0.00,28.0,WeatherDisplay:10.37,2014-01-29 13:07:00,
2014-01-29 08:12:00,2.0,-10.1,30.14,South,172,0.4,1.2,56,0.00,BKN,,0.00,32.0,WeatherDisplay:10.37,2014-01-29 13:12:00,
2014-01-29 08:17:00,2.3,-10.2,30.14,SSE,165,1.1,4.0,55,0.00,SCT,,0.00,60.0,WeatherDisplay:10.37,2014-01-29 13:17:00,
2014-01-29 08:22:00,2.7,-10.2,30.14,SW,225,1.0,5.8,54,0.00,BKN,,0.00,49.0,WeatherDisplay:10.37,2014-01-29 13:22:00,
2014-01-29 08:27:00,3.1,-9.8,30.14,WNW,295,0.0,2.3,54,0.00,BKN,,0.00,39.0,WeatherDisplay:10.37,2014-01-29 13:27:00,
2014-01-29 08:32:00,3.3,-10.0,30.14,SSW,196,0.3,1.2,53,0.00,BKN,,0.00,49.0,WeatherDisplay:10.37,2014-01-29 13:32:00,
2014-01-29 08:37:00,3.6,-9.7,30.14,WSW,241,0.0,2.3,53,0.00,BKN,,0.00,60.0,WeatherDisplay:10.37,2014-01-29 13:37:00,
2014-01-29 08:42:00,3.8,-9.6,30.14,SW,219,0.1,1.2,53,0.00,BKN,,0.00,53.0,WeatherDisplay:10.37,2014-01-29 13:42:00,
2014-01-29 08:47:00,4.0,-9.8,30.14,South,177,0.3,3.5,52,0.00,BKN,,0.00,118.0,WeatherDisplay:10.37,2014-01-29 13:47:00,
2014-01-29 08:52:00,4.3,-9.5,30.14,SW,231,0.2,2.3,52,0.00,SCT,,0.00,162.0,WeatherDisplay:10.37,2014-01-29 13:52:00,
2014-01-29 08:57:00,4.4,-9.4,30.14,SSW,198,1.8,5.8,52,0.00,CLR,,0.00,199.0,WeatherDisplay:10.37,2014-01-29 13:57:00,
2014-01-29 09:02:00,4.4,-9.4,30.14,SSW,203,1.8,4.6,52,0.00,CLR,,0.00,221.0,WeatherDisplay:10.37,2014-01-29 14:02:00,
2014-01-29 09:07:00,4.5,-9.3,30.14,South,169,0.6,3.5,52,0.00,CLR,,0.00,237.0,WeatherDisplay:10.37,2014-01-29 14:07:00,
2014-01-29 09:12:00,4.9,-8.9,30.14,SSW,211,1.2,3.5,52,0.00,CLR,,0.00,255.0,WeatherDisplay:10.37,2014-01-29 14:12:00,
2014-01-29 09:17:00,5.3,-8.5,30.13,SSW,205,2.0,4.6,52,0.00,CLR,,0.00,271.0,WeatherDisplay:10.37,2014-01-29 14:17:00,
2014-01-29 09:22:00,5.7,-8.6,30.14,South,190,1.3,1.3,51,0.00,CLR,,0.00,285.0,WeatherDisplay:10.37,2014-01-29 14:22:00,
2014-01-29 09:27:00,6.2,-8.1,30.14,SSW,196,2.1,3.0,51,0.00,CLR,,0.00,297.0,WeatherDisplay:10.37,2014-01-29 14:27:00,
2014-01-29 09:32:00,6.4,-8.3,30.14,SSW,205,3.6,6.9,50,0.00,CLR,,0.00,309.0,WeatherDisplay:10.37,2014-01-29 14:32:00,
2014-01-29 09:37:00,6.6,-8.1,30.14,SW,236,1.6,3.5,50,0.00,CLR,,0.00,322.0,WeatherDisplay:10.37,2014-01-29 14:37:00,
2014-01-29 09:42:00,6.8,-8.4,30.14,WSW,242,2.7,5.0,49,0.00,CLR,,0.00,336.0,WeatherDisplay:10.37,2014-01-29 14:42:00,
2014-01-29 09:47:00,7.1,-8.1,30.14,WSW,242,1.8,4.0,49,0.00,CLR,,0.00,348.0,WeatherDisplay:10.37,2014-01-29 14:47:00,
2014-01-29 09:52:00,7.2,-8.0,30.14,SW,231,3.1,5.8,49,0.00,CLR,,0.00,360.0,WeatherDisplay:10.37,2014-01-29 14:52:00,
2014-01-29 09:57:00,7.2,-8.0,30.14,WSW,246,2.9,6.9,49,0.00,CLR,,0.00,371.0,WeatherDisplay:10.37,2014-01-29 14:57:00,
2014-01-29 10:02:00,7.4,-7.8,30.13,WSW,248,1.9,3.5,49,0.00,CLR,,0.00,381.0,WeatherDisplay:10.37,2014-01-29 15:02:00,
2014-01-29 10:07:00,7.7,-7.9,30.13,SSW,212,4.1,9.2,48,0.00,CLR,,0.00,392.0,WeatherDisplay:10.37,2014-01-29 15:07:00,
2014-01-29 10:12:00,7.7,-7.9,30.13,West,280,2.8,4.6,48,0.00,CLR,,0.00,403.0,WeatherDisplay:10.37,2014-01-29 15:12:00,
2014-01-29 10:17:00,7.7,-7.9,30.13,SSW,210,3.0,8.1,48,0.00,CLR,,0.00,413.0,WeatherDisplay:10.37,2014-01-29 15:17:00,
2014-01-29 10:22:00,8.0,-7.7,30.13,WSW,258,2.9,6.9,48,0.00,CLR,,0.00,422.0,WeatherDisplay:10.37,2014-01-29 15:22:00,
2014-01-29 10:27:00,8.3,-7.4,30.13,WSW,249,3.2,4.6,48,0.00,CLR,,0.00,431.0,WeatherDisplay:10.37,2014-01-29 15:27:00,
2014-01-29 10:32:00,8.6,-7.5,30.13,WSW,242,2.1,3.5,47,0.00,CLR,,0.00,441.0,WeatherDisplay:10.37,2014-01-29 15:32:00,
2014-01-29 10:37:00,8.9,-7.7,30.13,WSW,248,0.8,4.6,46,0.00,CLR,,0.00,448.0,WeatherDisplay:10.37,2014-01-29 15:37:00,
2014-01-29 10:42:00,9.2,-7.9,30.13,SW,214,2.1,4.6,45,0.00,CLR,,0.00,457.0,WeatherDisplay:10.37,2014-01-29 15:42:00,
2014-01-29 10:47:00,9.5,-8.1,30.12,SSW,207,0.8,2.3,44,0.00,CLR,,0.00,466.0,WeatherDisplay:10.37,2014-01-29 15:47:00,
2014-01-29 10:52:00,9.9,-7.2,30.13,WNW,293,2.1,5.0,45,0.00,CLR,,0.00,473.0,WeatherDisplay:10.37,2014-01-29 15:52:00,
2014-01-29 10:57:00,9.9,-8.2,30.12,WSW,238,3.2,6.9,43,0.00,CLR,,0.00,478.0,WeatherDisplay:10.37,2014-01-29 15:57:00,
2014-01-29 11:02:00,10.1,-7.5,30.12,SSW,205,4.6,8.1,44,0.00,CLR,,0.00,489.0,WeatherDisplay:10.37,2014-01-29 16:02:00,
2014-01-29 11:07:00,9.9,-8.7,30.12,West,259,2.6,4.6,42,0.00,CLR,,0.00,494.0,WeatherDisplay:10.37,2014-01-29 16:07:00,
2014-01-29 11:12:00,10.2,-8.4,30.11,WSW,244,1.4,5.8,42,0.00,CLR,,0.00,499.0,WeatherDisplay:10.37,2014-01-29 16:12:00,
2014-01-29 11:17:00,10.6,-7.5,30.12,WSW,251,3.2,6.0,43,0.00,CLR,,0.00,506.0,WeatherDisplay:10.37,2014-01-29 16:17:00,
2014-01-29 11:22:00,10.8,-8.3,30.12,West,268,1.3,5.8,41,0.00,CLR,,0.00,510.0,WeatherDisplay:10.37,2014-01-29 16:22:00,
2014-01-29 11:27:00,10.9,-8.2,30.11,SSW,193,3.3,8.1,41,0.00,CLR,,0.00,517.0,WeatherDisplay:10.37,2014-01-29 16:27:00,
2014-01-29 11:32:00,11.0,-7.2,30.11,WSW,250,0.8,5.0,43,0.00,CLR,,0.00,520.0,WeatherDisplay:10.37,2014-01-29 16:32:00,
2014-01-29 11:33:00,11.2,-7.0,30.11,WSW,242,3.5,5.8,43,0.00,CLR,,0.00,520.0,WeatherDisplay:10.37,2014-01-29 16:33:00,
2014-01-29 11:38:00,11.0,-8.7,30.11,WNW,290,3.7,6.9,40,0.00,CLR,,0.00,526.0,WeatherDisplay:10.37,2014-01-29 16:38:00,
2014-01-29 11:43:00,11.6,-6.6,30.11,WSW,240,1.6,5.0,43,0.00,CLR,,0.00,529.0,WeatherDisplay:10.37,2014-01-29 16:43:00,
2014-01-29 11:48:00,12.1,-7.1,30.11,WNW,285,6.3,12.7,41,0.00,CLR,,0.00,533.0,WeatherDisplay:10.37,2014-01-29 16:48:00,
2014-01-29 11:53:00,12.4,-5.9,30.10,WNW,302,2.4,5.8,43,0.00,CLR,,0.00,533.0,WeatherDisplay:10.37,2014-01-29 16:53:00,
2014-01-29 11:58:00,12.7,-6.6,30.09,NNW,341,3.3,6.0,41,0.00,CLR,,0.00,536.0,WeatherDisplay:10.37,2014-01-29 16:58:00,
2014-01-29 12:03:00,12.6,-6.7,30.09,NW,316,6.8,10.4,41,0.00,CLR,,0.00,540.0,WeatherDisplay:10.37,2014-01-29 17:03:00,
2014-01-29 12:08:00,12.7,-6.6,30.09,SW,236,5.5,8.1,41,0.00,CLR,,0.00,541.0,WeatherDisplay:10.37,2014-01-29 17:08:00,
2014-01-29 12:13:00,13.0,-6.3,30.09,WNW,302,8.3,12.7,41,0.00,CLR,,0.00,543.0,WeatherDisplay:10.37,2014-01-29 17:13:00,
2014-01-29 12:18:00,12.8,-7.0,30.09,WNW,298,4.6,11.5,40,0.00,CLR,,0.00,550.0,WeatherDisplay:10.37,2014-01-29 17:18:00,
2014-01-29 12:23:00,13.2,-6.1,30.09,WSW,254,7.1,13.8,41,0.00,CLR,,0.00,545.0,WeatherDisplay:10.37,2014-01-29 17:23:00,
2014-01-29 12:28:00,13.3,-6.1,30.08,NNW,327,6.2,13.8,41,0.00,CLR,,0.00,545.0,WeatherDisplay:10.37,2014-01-29 17:28:00,
2014-01-29 12:33:00,13.6,-4.8,30.09,NW,307,2.6,8.1,43,0.00,CLR,,0.00,545.0,WeatherDisplay:10.37,2014-01-29 17:33:00,
2014-01-29 12:38:00,13.3,-6.1,30.08,NNW,329,9.1,11.5,41,0.00,CLR,,0.00,543.0,WeatherDisplay:10.37,2014-01-29 17:38:00,
2014-01-29 12:43:00,13.5,-5.4,30.08,NW,304,1.8,6.9,42,0.00,CLR,,0.00,541.0,WeatherDisplay:10.37,2014-01-29 17:43:00,
2014-01-29 12:48:00,13.4,-6.0,30.08,NW,316,7.8,12.7,41,0.00,CLR,,0.00,543.0,WeatherDisplay:10.37,2014-01-29 17:48:00,
2014-01-29 12:53:00,13.4,-5.5,30.08,WNW,289,4.7,11.5,42,0.00,CLR,,0.00,540.0,WeatherDisplay:10.37,2014-01-29 17:53:00,
2014-01-29 12:58:00,13.8,-4.6,30.08,WNW,293,3.6,9.2,43,0.00,CLR,,0.00,536.0,WeatherDisplay:10.37,2014-01-29 17:58:00,
2014-01-29 13:03:00,14.1,-4.3,30.07,WNW,300,4.1,12.7,43,0.00,CLR,,0.00,533.0,WeatherDisplay:10.37,2014-01-29 18:03:00,
2014-01-29 13:08:00,13.8,-5.1,30.07,WNW,291,3.4,8.1,42,0.00,CLR,,0.00,529.0,WeatherDisplay:10.37,2014-01-29 18:08:00,
2014-01-29 13:13:00,13.7,-5.7,30.07,WNW,284,8.6,16.1,41,0.00,CLR,,0.00,526.0,WeatherDisplay:10.37,2014-01-29 18:13:00,
2014-01-29 13:18:00,13.5,-5.4,30.07,WNW,303,4.8,11.5,42,0.00,CLR,,0.00,519.0,WeatherDisplay:10.37,2014-01-29 18:18:00,
2014-01-29 13:23:00,13.8,-4.6,30.06,WNW,303,4.0,9.2,43,0.00,CLR,,0.00,512.0,WeatherDisplay:10.37,2014-01-29 18:23:00,
2014-01-29 13:28:00,14.1,-4.3,30.06,WNW,301,5.3,11.5,43,0.00,CLR,,0.00,501.0,WeatherDisplay:10.37,2014-01-29 18:28:00,
2014-01-29 13:33:00,14.4,-4.6,30.06,West,271,5.8,10.4,42,0.00,CLR,,0.00,513.0,WeatherDisplay:10.37,2014-01-29 18:33:00,
2014-01-29 13:38:00,14.6,-3.9,30.06,West,279,3.7,8.1,43,0.00,CLR,,0.00,478.0,WeatherDisplay:10.37,2014-01-29 18:38:00,
2014-01-29 13:43:00,14.6,-4.4,30.06,West,263,3.9,11.5,42,0.00,CLR,,0.00,408.0,WeatherDisplay:10.37,2014-01-29 18:43:00,
2014-01-29 13:48:00,14.7,-4.3,30.06,WNW,301,8.6,13.8,42,0.00,CLR,,0.00,496.0,WeatherDisplay:10.37,2014-01-29 18:48:00,
2014-01-29 13:53:00,14.8,-4.2,30.06,WNW,282,3.5,8.1,42,0.00,CLR,,0.00,457.0,WeatherDisplay:10.37,2014-01-29 18:53:00,
2014-01-29 13:58:00,15.0,-4.5,30.06,WNW,300,5.3,9.2,41,0.00,CLR,,0.00,466.0,WeatherDisplay:10.37,2014-01-29 18:58:00,
2014-01-29 14:03:00,15.0,-4.0,30.06,NW,304,2.7,6.9,42,0.00,CLR,,0.00,464.0,WeatherDisplay:10.37,2014-01-29 19:03:00,
2014-01-29 14:08:00,15.3,-4.2,30.05,NNW,339,4.4,10.4,41,0.00,CLR,,0.00,329.0,WeatherDisplay:10.37,2014-01-29 19:08:00,
2014-01-29 14:13:00,15.1,-4.4,30.06,WNW,296,5.6,12.7,41,0.00,CLR,,0.00,390.0,WeatherDisplay:10.37,2014-01-29 19:13:00,
2014-01-29 14:18:00,15.0,-4.0,30.06,NNW,329,2.8,12.7,42,0.00,CLR,,0.00,404.0,WeatherDisplay:10.37,2014-01-29 19:18:00,
2014-01-29 14:23:00,15.3,-3.7,30.06,NW,313,7.3,11.5,42,0.00,CLR,,0.00,417.0,WeatherDisplay:10.37,2014-01-29 19:23:00,
2014-01-29 14:28:00,15.2,-3.8,30.06,NNW,327,4.8,15.0,42,0.00,CLR,,0.00,397.0,WeatherDisplay:10.37,2014-01-29 19:28:00,
2014-01-29 14:33:00,15.6,-3.0,30.06,NNW,331,3.2,5.8,43,0.00,CLR,,0.00,294.0,WeatherDisplay:10.37,2014-01-29 19:33:00,
2014-01-29 14:38:00,15.8,-3.3,30.06,NW,304,4.2,9.2,42,0.00,CLR,,0.00,350.0,WeatherDisplay:10.37,2014-01-29 19:38:00,
2014-01-29 14:43:00,15.5,-3.1,30.06,WSW,240,6.1,12.7,43,0.00,CLR,,0.00,376.0,WeatherDisplay:10.37,2014-01-29 19:43:00,
2014-01-29 14:48:00,15.3,-3.2,30.07,West,271,7.3,13.8,43,0.00,CLR,,0.00,346.0,WeatherDisplay:10.37,2014-01-29 19:48:00,
2014-01-29 14:53:00,15.2,-2.8,30.07,NW,309,7.1,11.5,44,0.00,CLR,,0.00,357.0,WeatherDisplay:10.37,2014-01-29 19:53:00,
2014-01-29 14:58:00,15.2,-2.8,30.07,WSW,251,7.7,15.0,44,0.00,CLR,,0.00,316.0,WeatherDisplay:10.37,2014-01-29 19:58:00,
2014-01-29 15:03:00,15.2,-2.8,30.07,WNW,298,7.2,11.5,44,0.00,CLR,,0.00,339.0,WeatherDisplay:10.37,2014-01-29 20:03:00,
2014-01-29 15:08:00,15.0,-3.0,30.07,NW,315,6.5,12.0,44,0.00,CLR,,0.00,327.0,WeatherDisplay:10.37,2014-01-29 20:08:00,
2014-01-29 15:13:00,15.0,-2.6,30.07,WNW,297,5.9,10.4,45,0.00,CLR,,0.00,253.0,WeatherDisplay:10.37,2014-01-29 20:13:00,
2014-01-29 15:18:00,15.0,-2.6,30.07,WNW,301,8.0,14.0,45,0.00,CLR,,0.00,309.0,WeatherDisplay:10.37,2014-01-29 20:18:00,
2014-01-29 15:23:00,15.0,-2.1,30.08,NW,313,3.8,12.7,46,0.00,CLR,,0.00,320.0,WeatherDisplay:10.37,2014-01-29 20:23:00,
2014-01-29 15:28:00,15.2,-1.9,30.08,WNW,294,6.3,11.5,46,0.00,CLR,,0.00,200.0,WeatherDisplay:10.37,2014-01-29 20:28:00,
2014-01-29 15:33:00,15.3,-1.8,30.08,WNW,293,3.8,11.5,46,0.00,CLR,,0.00,285.0,WeatherDisplay:10.37,2014-01-29 20:33:00,
2014-01-29 15:38:00,15.5,-1.6,30.09,WNW,298,7.0,11.5,46,0.00,CLR,,0.00,297.0,WeatherDisplay:10.37,2014-01-29 20:38:00,
2014-01-29 15:43:00,15.5,-1.2,30.09,WNW,286,7.1,15.0,47,0.00,CLR,,0.00,262.0,WeatherDisplay:10.37,2014-01-29 20:43:00,
2014-01-29 15:48:00,15.4,-1.3,30.09,WNW,289,5.1,10.4,47,0.00,CLR,,0.00,232.0,WeatherDisplay:10.37,2014-01-29 20:48:00,
2014-01-29 15:53:00,15.3,-1.4,30.09,WNW,293,7.4,12.7,47,0.00,CLR,,0.00,200.0,WeatherDisplay:10.37,2014-01-29 20:53:00,
2014-01-29 15:58:00,15.0,-1.6,30.09,NW,324,5.3,11.5,47,0.00,CLR,,0.00,181.0,WeatherDisplay:10.37,2014-01-29 20:58:00,
2014-01-29 16:03:00,14.9,-1.3,30.09,WNW,286,5.5,11.5,48,0.00,CLR,,0.00,162.0,WeatherDisplay:10.37,2014-01-29 21:03:00,
2014-01-29 16:08:00,14.9,-1.3,30.09,West,276,5.8,8.1,48,0.00,CLR,,0.00,146.0,WeatherDisplay:10.37,2014-01-29 21:08:00,
2014-01-29 16:13:00,14.8,-1.4,30.09,NW,313,5.8,11.5,48,0.00,CLR,,0.00,128.0,WeatherDisplay:10.37,2014-01-29 21:13:00,
2014-01-29 16:18:00,14.7,-1.5,30.10,WNW,298,5.3,9.2,48,0.00,CLR,,0.00,111.0,WeatherDisplay:10.37,2014-01-29 21:18:00,
2014-01-29 16:23:00,14.6,-1.1,30.10,NNW,339,3.3,8.1,49,0.00,CLR,,0.00,97.0,WeatherDisplay:10.37,2014-01-29 21:23:00,
2014-01-29 16:28:00,14.5,-1.7,30.10,NW,309,4.7,10.4,48,0.00,CLR,,0.00,83.0,WeatherDisplay:10.37,2014-01-29 21:28:00,
2014-01-29 16:33:00,14.4,-1.3,30.10,NW,306,4.9,11.5,49,0.00,CLR,,0.00,72.0,WeatherDisplay:10.37,2014-01-29 21:33:00,
2014-01-29 16:38:00,14.3,-1.4,30.11,WNW,288,4.3,8.1,49,0.00,CLR,,0.00,60.0,WeatherDisplay:10.37,2014-01-29 21:38:00,
2014-01-29 16:43:00,14.2,-1.5,30.11,NW,306,4.0,9.2,49,0.00,CLR,,0.00,42.0,WeatherDisplay:10.37,2014-01-29 21:43:00,
2014-01-29 16:48:00,14.0,-1.7,30.11,NW,317,3.5,8.1,49,0.00,CLR,,0.00,25.0,WeatherDisplay:10.37,2014-01-29 21:48:00,
2014-01-29 16:53:00,13.8,-1.4,30.11,NW,307,3.9,6.0,50,0.00,CLR,,0.00,19.0,WeatherDisplay:10.37,2014-01-29 21:53:00,
2014-01-29 16:58:00,13.6,-1.6,30.11,NW,305,2.5,5.8,50,0.00,CLR,,0.00,12.0,WeatherDisplay:10.37,2014-01-29 21:58:00,
2014-01-29 17:03:00,13.3,-1.9,30.11,WNW,302,4.0,8.1,50,0.00,OVC,,0.00,9.0,WeatherDisplay:10.37,2014-01-29 22:03:00,
2014-01-29 17:08:00,13.2,-1.6,30.12,West,277,1.8,8.1,51,0.00,OVC,,0.00,5.0,WeatherDisplay:10.37,2014-01-29 22:08:00,
2014-01-29 17:13:00,12.9,-1.9,30.12,WSW,252,2.5,6.0,51,0.00,OVC,,0.00,0.0,WeatherDisplay:10.37,2014-01-29 22:13:00,
2014-01-29 17:18:00,12.8,-1.9,30.12,West,268,1.3,5.8,51,0.00,OVC,,0.00,0.0,WeatherDisplay:10.37,2014-01-29 22:18:00,
2014-01-29 17:23:00,12.7,-1.6,30.12,West,261,1.6,5.8,52,0.00,OVC,,0.00,0.0,WeatherDisplay:10.37,2014-01-29 22:23:00,
2014-01-29 17:28:00,12.4,-1.5,30.12,WNW,302,1.3,4.0,53,0.00,OVC,,0.00,0.0,WeatherDisplay:10.37,2014-01-29 22:28:00,
2014-01-29 17:33:00,12.3,-1.6,30.12,West,267,1.7,4.6,53,0.00,OVC,,0.00,0.0,WeatherDisplay:10.37,2014-01-29 22:33:00,
2014-01-29 17:38:00,12.3,-1.6,30.13,West,273,2.0,4.6,53,0.00,OVC,,0.00,0.0,WeatherDisplay:10.37,2014-01-29 22:38:00,
2014-01-29 17:43:00,12.3,-1.6,30.13,West,263,1.0,6.9,53,0.00,CLR,,0.00,0.0,WeatherDisplay:10.37,2014-01-29 22:43:00,
2014-01-29 17:48:00,12.3,-1.2,30.13,NW,316,0.8,5.8,54,0.00,CLR,,0.00,0.0,WeatherDisplay:10.37,2014-01-29 22:48:00,
2014-01-29 17:53:00,12.2,-1.3,30.14,West,279,1.3,6.0,54,0.00,CLR,,0.00,0.0,WeatherDisplay:10.37,2014-01-29 22:53:00,
2014-01-29 17:58:00,12.2,-1.3,30.14,WNW,291,0.4,6.9,54,0.00,CLR,,0.00,0.0,WeatherDisplay:10.37,2014-01-29 22:58:00,
2014-01-29 18:03:00,12.1,-1.4,30.14,WNW,297,0.8,4.0,54,0.00,CLR,,0.00,0.0,WeatherDisplay:10.37,2014-01-29 23:03:00,
2014-01-29 18:08:00,11.7,-1.4,30.14,WNW,290,0.0,1.2,55,0.00,CLR,,0.00,0.0,WeatherDisplay:10.37,2014-01-29 23:08:00,
2014-01-29 18:13:00,11.5,-1.6,30.15,WNW,290,0.0,2.3,55,0.00,CLR,,0.00,0.0,WeatherDisplay:10.37,2014-01-29 23:13:00,
2014-01-29 18:18:00,11.2,-1.5,30.15,WNW,291,0.2,1.2,56,0.00,CLR,,0.00,0.0,WeatherDisplay:10.37,2014-01-29 23:18:00,
2014-01-29 18:23:00,10.8,-1.5,30.15,West,273,0.0,0.0,57,0.00,CLR,,0.00,0.0,WeatherDisplay:10.37,2014-01-29 23:23:00,
2014-01-29 18:28:00,10.7,-1.6,30.15,West,275,0.3,2.3,57,0.00,CLR,,0.00,0.0,WeatherDisplay:10.37,2014-01-29 23:28:00,
2014-01-29 18:33:00,10.5,-1.8,30.15,West,275,0.0,0.0,57,0.00,CLR,,0.00,0.0,WeatherDisplay:10.37,2014-01-29 23:33:00,
2014-01-29 18:38:00,10.1,-2.1,30.16,West,275,0.0,0.0,57,0.00,CLR,,0.00,0.0,WeatherDisplay:10.37,2014-01-29 23:38:00,
2014-01-29 18:43:00,9.8,-2.0,30.16,West,275,0.0,0.0,58,0.00,CLR,,0.00,0.0,WeatherDisplay:10.37,2014-01-29 23:43:00,
2014-01-29 18:48:00,9.4,-2.4,30.16,West,275,0.0,0.0,58,0.00,CLR,,0.00,0.0,WeatherDisplay:10.37,2014-01-29 23:48:00,
2014-01-29 18:53:00,9.2,-2.2,30.16,West,275,0.0,1.2,59,0.00,CLR,,0.00,0.0,WeatherDisplay:10.37,2014-01-29 23:53:00,
2014-01-29 18:58:00,9.3,-2.2,30.17,West,275,0.4,2.3,59,0.00,CLR,,0.00,0.0,WeatherDisplay:10.37,2014-01-29 23:58:00,
2014-01-29 19:03:00,9.6,-1.9,30.17,WNW,294,0.4,2.3,59,0.00,CLR,,0.00,0.0,WeatherDisplay:10.37,2014-01-30 00:03:00,
2014-01-29 19:08:00,9.9,-1.6,30.17,WNW,292,0.7,2.3,59,0.00,CLR,,0.00,0.0,WeatherDisplay:10.37,2014-01-30 00:08:00,
2014-01-29 19:13:00,9.9,-1.6,30.17,WNW,292,0.0,3.5,59,0.00,CLR,,0.00,0.0,WeatherDisplay:10.37,2014-01-30 00:13:00,
2014-01-29 19:18:00,9.6,-1.9,30.17,WNW,292,0.0,1.2,59,0.00,CLR,,0.00,0.0,WeatherDisplay:10.37,2014-01-30 00:18:00,
2014-01-29 19:23:00,9.2,-1.9,30.18,NW,317,0.7,6.0,60,0.00,CLR,,0.00,0.0,WeatherDisplay:10.37,2014-01-30 00:23:00,
2014-01-29 19:28:00,9.6,-1.2,30.18,NNW,340,1.6,4.6,61,0.00,CLR,,0.00,0.0,WeatherDisplay:10.37,2014-01-30 00:28:00,
2014-01-29 19:33:00,10.0,-0.8,30.18,NNW,329,1.9,3.5,61,0.00,CLR,,0.00,0.0,WeatherDisplay:10.37,2014-01-30 00:33:00,
2014-01-29 19:38:00,9.9,-0.9,30.19,West,281,1.0,3.5,61,0.00,CLR,,0.00,0.0,WeatherDisplay:10.37,2014-01-30 00:38:00,
2014-01-29 19:43:00,9.9,-0.5,30.19,WNW,284,3.5,6.9,62,0.00,CLR,,0.00,0.0,WeatherDisplay:10.37,2014-01-30 00:43:00,
2014-01-29 19:48:00,9.8,-0.6,30.19,WSW,244,0.8,3.0,62,0.00,CLR,,0.00,0.0,WeatherDisplay:10.37,2014-01-30 00:48:00,
2014-01-29 19:53:00,9.6,-0.5,30.19,West,264,1.0,3.0,63,0.00,CLR,,0.00,0.0,WeatherDisplay:10.37,2014-01-30 00:53:00,
2014-01-29 19:58:00,9.6,-0.5,30.19,WSW,249,1.4,3.5,63,0.00,CLR,,0.00,0.0,WeatherDisplay:10.37,2014-01-30 00:58:00,
2014-01-29 20:03:00,9.7,0.0,30.19,WSW,258,0.5,3.5,64,0.00,CLR,,0.00,0.0,WeatherDisplay:10.37,2014-01-30 01:03:00,
2014-01-29 20:08:00,9.7,0.3,30.19,West,270,1.0,8.1,65,0.00,CLR,,0.00,0.0,WeatherDisplay:10.37,2014-01-30 01:08:00,
2014-01-29 20:13:00,9.8,0.7,30.19,WSW,255,1.3,5.0,66,0.00,CLR,,0.00,0.0,WeatherDisplay:10.37,2014-01-30 01:13:00,
2014-01-29 20:18:00,9.8,0.7,30.19,WSW,255,3.1,9.2,66,0.00,CLR,,0.00,0.0,WeatherDisplay:10.37,2014-01-30 01:18:00,
2014-01-29 20:23:00,10.0,0.9,30.19,NW,324,4.2,11.0,66,0.00,CLR,,0.00,0.0,WeatherDisplay:10.37,2014-01-30 01:23:00,
2014-01-29 20:28:00,10.1,1.3,30.20,NW,325,3.0,3.5,67,0.00,CLR,,0.00,0.0,WeatherDisplay:10.37,2014-01-30 01:28:00,
2014-01-29 20:33:00,10.1,1.3,30.20,NW,306,2.2,6.9,67,0.00,CLR,,0.00,0.0,WeatherDisplay:10.37,2014-01-30 01:33:00,
2014-01-29 20:38:00,10.0,1.2,30.20,WSW,241,3.8,7.0,67,0.00,CLR,,0.00,0.0,WeatherDisplay:10.37,2014-01-30 01:38:00,
2014-01-29 20:43:00,10.1,1.3,30.20,NW,317,4.8,11.5,67,0.00,CLR,,0.00,0.0,WeatherDisplay:10.37,2014-01-30 01:43:00,
2014-01-29 20:48:00,10.1,1.3,30.21,WSW,252,5.2,10.0,67,0.00,CLR,,0.00,0.0,WeatherDisplay:10.37,2014-01-30 01:48:00,
2014-01-29 20:53:00,10.2,1.4,30.21,West,277,3.2,5.8,67,0.00,CLR,,0.00,0.0,WeatherDisplay:10.37,2014-01-30 01:53:00,
2014-01-29 20:58:00,10.2,1.4,30.21,West,262,1.5,5.8,67,0.00,CLR,,0.00,0.0,WeatherDisplay:10.37,2014-01-30 01:58:00,
2014-01-29 21:03:00,10.1,1.3,30.22,West,261,2.7,6.9,67,0.00,CLR,,0.00,0.0,WeatherDisplay:10.37,2014-01-30 02:03:00,
2014-01-29 21:08:00,10.1,1.6,30.22,WSW,242,4.8,8.1,68,0.00,CLR,,0.00,0.0,WeatherDisplay:10.37,2014-01-30 02:08:00,
2014-01-29 21:13:00,10.4,1.6,30.22,SW,221,4.5,8.1,67,0.00,CLR,,0.00,0.0,WeatherDisplay:10.37,2014-01-30 02:13:00,
2014-01-29 21:18:00,10.4,1.6,30.22,WSW,249,7.3,15.0,67,0.00,CLR,,0.00,0.0,WeatherDisplay:10.37,2014-01-30 02:18:00,
2014-01-29 21:23:00,10.5,1.7,30.22,West,262,3.8,11.5,67,0.00,CLR,,0.00,0.0,WeatherDisplay:10.37,2014-01-30 02:23:00,
2014-01-29 21:28:00,10.5,1.7,30.22,WNW,293,4.6,9.2,67,0.00,CLR,,0.00,0.0,WeatherDisplay:10.37,2014-01-30 02:28:00,
2014-01-29 21:33:00,10.9,2.1,30.22,NW,311,5.1,10.4,67,0.00,CLR,,0.00,0.0,WeatherDisplay:10.37,2014-01-30 02:33:00,
2014-01-29 21:38:00,11.4,2.2,30.22,West,281,5.8,11.5,66,0.00,CLR,,0.00,0.0,WeatherDisplay:10.37,2014-01-30 02:38:00,
2014-01-29 21:43:00,11.7,2.5,30.23,NNW,333,5.7,12.7,66,0.00,CLR,,0.00,0.0,WeatherDisplay:10.37,2014-01-30 02:43:00,
2014-01-29 21:48:00,11.8,2.3,30.23,West,259,4.7,9.2,65,0.00,CLR,,0.00,0.0,WeatherDisplay:10.37,2014-01-30 02:48:00,
2014-01-29 21:53:00,11.7,2.2,30.23,NW,310,7.8,13.8,65,0.00,CLR,,0.00,0.0,WeatherDisplay:10.37,2014-01-30 02:53:00,
2014-01-29 21:58:00,11.6,2.1,30.24,West,263,7.6,15.0,65,0.00,CLR,,0.00,0.0,WeatherDisplay:10.37,2014-01-30 02:58:00,
2014-01-29 22:03:00,11.4,2.2,30.23,SW,229,7.0,13.8,66,0.00,CLR,,0.00,0.0,WeatherDisplay:10.37,2014-01-30 03:03:00,
2014-01-29 22:08:00,11.3,2.1,30.23,WNW,286,4.4,9.2,66,0.00,CLR,,0.00,0.0,WeatherDisplay:10.37,2014-01-30 03:08:00,
2014-01-29 22:13:00,11.4,2.2,30.24,West,262,4.0,9.2,66,0.00,CLR,,0.00,0.0,WeatherDisplay:10.37,2014-01-30 03:13:00,
2014-01-29 22:18:00,11.5,2.3,30.24,WSW,252,6.3,11.0,66,0.00,CLR,,0.00,0.0,WeatherDisplay:10.37,2014-01-30 03:18:00,
2014-01-29 22:23:00,11.7,2.2,30.25,SW,223,5.0,10.4,65,0.00,CLR,,0.00,0.0,WeatherDisplay:10.37,2014-01-30 03:23:00,
2014-01-29 22:28:00,11.8,2.3,30.25,WSW,246,5.6,10.4,65,0.00,CLR,,0.00,0.0,WeatherDisplay:10.37,2014-01-30 03:28:00,
2014-01-29 22:33:00,11.7,2.2,30.25,West,275,3.0,7.0,65,0.00,CLR,,0.00,0.0,WeatherDisplay:10.37,2014-01-30 03:33:00,
2014-01-29 22:38:00,11.5,2.3,30.25,WSW,238,3.0,8.1,66,0.00,CLR,,0.00,0.0,WeatherDisplay:10.37,2014-01-30 03:38:00,
2014-01-29 22:43:00,11.4,2.2,30.25,NW,304,4.0,11.0,66,0.00,CLR,,0.00,0.0,WeatherDisplay:10.37,2014-01-30 03:43:00,
2014-01-29 22:48:00,11.3,2.1,30.25,West,261,3.0,8.1,66,0.00,CLR,,0.00,0.0,WeatherDisplay:10.37,2014-01-30 03:48:00,
2014-01-29 22:53:00,11.2,2.4,30.25,WSW,245,3.0,5.8,67,0.00,CLR,,0.00,0.0,WeatherDisplay:10.37,2014-01-30 03:53:00,
2014-01-29 22:58:00,11.0,2.2,30.25,WSW,244,2.8,8.1,67,0.00,CLR,,0.00,0.0,WeatherDisplay:10.37,2014-01-30 03:58:00,
2014-01-29 23:03:00,11.0,2.2,30.25,NNW,328,1.8,8.1,67,0.00,CLR,,0.00,0.0,WeatherDisplay:10.37,2014-01-30 04:03:00,
2014-01-29 23:08:00,10.9,2.4,30.25,WNW,300,2.2,3.5,68,0.00,CLR,,0.00,0.0,WeatherDisplay:10.37,2014-01-30 04:08:00,
2014-01-29 23:13:00,10.9,2.4,30.25,WNW,284,3.3,6.9,68,0.00,CLR,,0.00,0.0,WeatherDisplay:10.37,2014-01-30 04:13:00,
2014-01-29 23:18:00,11.0,2.5,30.25,West,259,3.2,9.2,68,0.00,CLR,,0.00,0.0,WeatherDisplay:10.37,2014-01-30 04:18:00,
2014-01-29 23:23:00,11.1,2.6,30.25,WNW,292,1.5,6.9,68,0.00,CLR,,0.00,0.0,WeatherDisplay:10.37,2014-01-30 04:23:00,
2014-01-29 23:28:00,11.0,2.5,30.25,WNW,290,1.6,3.5,68,0.00,CLR,,0.00,0.0,WeatherDisplay:10.37,2014-01-30 04:28:00,
2014-01-29 23:33:00,11.2,2.7,30.25,WSW,242,2.6,5.8,68,0.00,CLR,,0.00,0.0,WeatherDisplay:10.37,2014-01-30 04:33:00,
2014-01-29 23:38:00,11.3,2.5,30.25,WSW,252,2.2,3.5,67,0.00,CLR,,0.00,0.0,WeatherDisplay:10.37,2014-01-30 04:38:00,
2014-01-29 23:43:00,11.3,2.5,30.25,NNW,327,4.6,7.0,67,0.00,CLR,,0.00,0.0,WeatherDisplay:10.37,2014-01-30 04:43:00,
2014-01-29 23:48:00,11.5,3.0,30.26,WNW,300,2.6,8.1,68,0.00,CLR,,0.00,0.0,WeatherDisplay:10.37,2014-01-30 04:48:00,
2014-01-29 23:53:00,11.7,3.2,30.26,NNW,327,5.7,12.0,68,0.00,CLR,,0.00,0.0,WeatherDisplay:10.37,2014-01-30 04:53:00,
2014-01-29 23:58:00,11.8,3.3,30.26,WNW,296,4.5,7.0,68,0.00,CLR,,0.00,0.0,WeatherDisplay:10.37,2014-01-30 04:58:00,